Time,TemperatureF,DewpointF,PressureIn,WindDirection,WindDirectionDegrees,WindSpeedMPH,WindSpeedGustMPH,Humidity,HourlyPrecipIn,Conditions,Clouds,dailyrainin,SoftwareType,DateUTC
2013-06-27 05:33:00,71.0,70.5,29.80,South,180,2.0,3.0,99,0.00,,,0.00,Rainwise IP-100,2013-06-27 10:33:00,
2013-06-27 05:38:00,71.0,70.5,29.80,SW,225,2.0,4.0,99,0.00,,,0.00,Rainwise IP-100,2013-06-27 10:38:00,
2013-06-27 05:43:00,71.0,70.5,29.81,SSW,202,1.0,4.0,99,0.00,,,0.00,Rainwise IP-100,2013-06-27 10:43:00,
2013-06-27 05:48:00,71.0,70.5,29.81,SW,225,2.0,6.0,99,0.00,,,0.00,Rainwise IP-100,2013-06-27 10:48:00,
2013-06-27 05:53:00,71.0,70.5,29.81,SW,225,0.0,6.0,99,0.00,,,0.00,Rainwise IP-100,2013-06-27 10:53:00,
2013-06-27 05:58:00,71.0,70.5,29.81,SW,225,0.0,2.0,99,0.00,,,0.00,Rainwise IP-100,2013-06-27 10:58:00,
2013-06-27 06:03:00,72.0,71.7,29.80,South,180,1.0,4.0,99,0.00,,,0.00,Rainwise IP-100,2013-06-27 11:03:00,
2013-06-27 06:08:00,72.0,71.7,29.80,South,180,1.0,3.0,99,0.00,,,0.00,Rainwise IP-100,2013-06-27 11:08:00,
2013-06-27 06:13:00,72.0,71.7,29.80,SSW,202,2.0,3.0,99,0.00,,,0.00,Rainwise IP-100,2013-06-27 11:13:00,
2013-06-27 06:18:00,72.0,71.7,29.80,South,180,1.0,7.0,99,0.00,,,0.00,Rainwise IP-100,2013-06-27 11:18:00,
2013-06-27 06:23:00,72.0,71.7,29.81,South,180,0.0,2.0,99,0.00,,,0.00,Rainwise IP-100,2013-06-27 11:23:00,
2013-06-27 06:28:00,72.0,71.7,29.81,SW,225,3.0,4.0,99,0.00,,,0.00,Rainwise IP-100,2013-06-27 11:28:00,
2013-06-27 06:33:00,73.0,72.7,29.81,NW,315,0.0,4.0,99,0.00,,,0.00,Rainwise IP-100,2013-06-27 11:33:00,
2013-06-27 06:35:00,73.0,72.7,29.81,NW,315,0.0,4.0,99,0.00,,,0.00,Rainwise IP-100,2013-06-27 11:35:00,
2013-06-27 06:40:00,73.0,72.7,29.81,WSW,247,0.0,2.0,99,0.00,,,0.00,Rainwise IP-100,2013-06-27 11:40:00,
2013-06-27 06:45:00,73.0,72.7,29.81,SW,225,2.0,6.0,99,0.00,,,0.00,Rainwise IP-100,2013-06-27 11:45:00,
2013-06-27 06:50:00,73.0,72.7,29.81,SSW,202,3.0,5.0,99,0.00,,,0.00,Rainwise IP-100,2013-06-27 11:50:00,
2013-06-27 06:55:00,73.0,72.7,29.81,SW,225,2.0,7.0,99,0.00,,,0.00,Rainwise IP-100,2013-06-27 11:55:00,
2013-06-27 07:00:00,74.0,73.7,29.81,SSE,157,0.0,6.0,99,0.00,,,0.00,Rainwise IP-100,2013-06-27 12:00:00,
2013-06-27 07:05:00,74.0,73.7,29.81,West,270,2.0,4.0,99,0.00,,,0.00,Rainwise IP-100,2013-06-27 12:05:00,
2013-06-27 07:10:00,75.0,74.7,29.81,West,270,0.0,4.0,99,0.00,,,0.00,Rainwise IP-100,2013-06-27 12:10:00,
2013-06-27 07:15:00,75.0,74.7,29.81,SW,225,4.0,5.0,99,0.00,,,0.00,Rainwise IP-100,2013-06-27 12:15:00,
2013-06-27 07:20:00,75.0,74.7,29.81,SSW,202,6.0,6.0,99,0.00,,,0.00,Rainwise IP-100,2013-06-27 12:20:00,
2013-06-27 07:25:00,76.0,76.0,29.82,South,180,1.0,6.0,100,0.00,,,0.00,Rainwise IP-100,2013-06-27 12:25:00,
2013-06-27 07:30:00,76.0,76.0,29.82,South,180,1.0,3.0,100,0.00,,,0.00,Rainwise IP-100,2013-06-27 12:30:00,
2013-06-27 07:35:00,76.0,76.0,29.83,NW,315,1.0,3.0,100,0.00,,,0.00,Rainwise IP-100,2013-06-27 12:35:00,
2013-06-27 07:40:00,77.0,77.0,29.83,South,180,0.0,5.0,100,0.00,,,0.00,Rainwise IP-100,2013-06-27 12:40:00,
2013-06-27 07:45:00,78.0,78.0,29.83,SE,135,1.0,8.0,100,0.00,,,0.00,Rainwise IP-100,2013-06-27 12:45:00,
2013-06-27 07:50:00,77.0,75.5,29.83,NNW,337,3.0,6.0,95,0.00,,,0.00,Rainwise IP-100,2013-06-27 12:50:00,
2013-06-27 07:55:00,78.0,77.0,29.83,South,180,1.0,7.0,97,0.00,,,0.00,Rainwise IP-100,2013-06-27 12:55:00,
2013-06-27 08:00:00,79.0,77.3,29.83,West,270,2.0,6.0,95,0.00,,,0.00,Rainwise IP-100,2013-06-27 13:00:00,
2013-06-27 08:05:00,79.0,76.3,29.82,West,270,6.0,7.0,91,0.00,,,0.00,Rainwise IP-100,2013-06-27 13:05:00,
2013-06-27 08:10:00,79.0,77.0,29.82,South,180,1.0,7.0,94,0.00,,,0.00,Rainwise IP-100,2013-06-27 13:10:00,
2013-06-27 08:15:00,79.0,75.0,29.83,SW,225,4.0,7.0,88,0.00,,,0.00,Rainwise IP-100,2013-06-27 13:15:00,
2013-06-27 08:16:00,79.0,75.5,29.83,SSE,157,1.0,7.0,89,0.00,,,0.00,Rainwise IP-100,2013-06-27 13:16:00,
2013-06-27 08:21:00,80.0,76.8,29.83,SE,135,2.0,4.0,90,0.00,,,0.00,Rainwise IP-100,2013-06-27 13:21:00,
2013-06-27 08:24:00,80.0,76.8,29.83,West,270,3.0,4.0,90,0.00,,,0.00,Rainwise IP-100,2013-06-27 13:24:00,
2013-06-27 08:26:00,80.0,76.3,29.83,South,180,0.0,6.0,88,0.00,,,0.00,Rainwise IP-100,2013-06-27 13:26:00,
2013-06-27 08:31:00,81.0,76.8,29.83,SE,135,1.0,4.0,87,0.00,,,0.00,Rainwise IP-100,2013-06-27 13:31:00,
2013-06-27 08:36:00,79.0,74.3,29.82,West,270,7.0,9.0,86,0.00,,,0.00,Rainwise IP-100,2013-06-27 13:36:00,
2013-06-27 08:41:00,80.0,76.0,29.82,West,270,1.0,9.0,87,0.00,,,0.00,Rainwise IP-100,2013-06-27 13:41:00,
2013-06-27 08:46:00,81.0,77.0,29.83,SE,135,0.0,7.0,88,0.00,,,0.00,Rainwise IP-100,2013-06-27 13:46:00,
2013-06-27 08:51:00,81.0,76.3,29.83,West,270,3.0,6.0,85,0.00,,,0.00,Rainwise IP-100,2013-06-27 13:51:00,
2013-06-27 08:56:00,81.0,76.8,29.83,South,180,1.0,7.0,87,0.00,,,0.00,Rainwise IP-100,2013-06-27 13:56:00,
2013-06-27 09:01:00,81.0,75.5,29.83,NW,315,5.0,5.0,83,0.00,,,0.00,Rainwise IP-100,2013-06-27 14:01:00,
2013-06-27 09:06:00,82.0,76.3,29.83,NW,315,4.0,5.0,83,0.00,,,0.00,Rainwise IP-100,2013-06-27 14:06:00,
2013-06-27 09:11:00,82.0,76.0,29.83,SW,225,1.0,7.0,82,0.00,,,0.00,Rainwise IP-100,2013-06-27 14:11:00,
2013-06-27 09:16:00,82.0,75.5,29.83,NNW,337,2.0,5.0,81,0.00,,,0.00,Rainwise IP-100,2013-06-27 14:16:00,
2013-06-27 09:21:00,83.0,76.3,29.83,West,270,1.0,5.0,80,0.00,,,0.00,Rainwise IP-100,2013-06-27 14:21:00,
2013-06-27 09:26:00,84.0,78.0,29.83,WSW,247,1.0,9.0,82,0.00,,,0.00,Rainwise IP-100,2013-06-27 14:26:00,
2013-06-27 09:31:00,84.0,76.8,29.83,West,270,3.0,6.0,79,0.00,,,0.00,Rainwise IP-100,2013-06-27 14:31:00,
2013-06-27 09:36:00,82.0,74.3,29.83,SSW,202,2.0,10.0,78,0.00,,,0.00,Rainwise IP-100,2013-06-27 14:36:00,
2013-06-27 09:41:00,83.0,76.8,29.83,SW,225,1.0,7.0,82,0.00,,,0.00,Rainwise IP-100,2013-06-27 14:41:00,
2013-06-27 09:46:00,85.0,76.5,29.83,South,180,2.0,5.0,76,0.00,,,0.00,Rainwise IP-100,2013-06-27 14:46:00,
2013-06-27 09:51:00,86.0,78.3,29.83,West,270,0.0,7.0,78,0.00,,,0.00,Rainwise IP-100,2013-06-27 14:51:00,
2013-06-27 09:57:00,86.0,76.0,29.82,South,180,4.0,5.0,72,0.00,,,0.00,Rainwise IP-100,2013-06-27 14:57:00,
2013-06-27 10:02:00,88.0,77.3,29.82,SSE,157,0.0,4.0,71,0.00,,,0.00,Rainwise IP-100,2013-06-27 15:02:00,
2013-06-27 10:07:00,89.0,78.0,29.81,SSW,202,0.0,4.0,70,0.00,,,0.00,Rainwise IP-100,2013-06-27 15:07:00,
2013-06-27 10:12:00,89.0,77.3,29.81,SSW,202,1.0,6.0,69,0.00,,,0.00,Rainwise IP-100,2013-06-27 15:12:00,
2013-06-27 10:17:00,89.0,76.5,29.81,WSW,247,3.0,6.0,67,0.00,,,0.00,Rainwise IP-100,2013-06-27 15:17:00,
2013-06-27 10:22:00,89.0,77.3,29.81,SSE,157,2.0,5.0,69,0.00,,,0.00,Rainwise IP-100,2013-06-27 15:22:00,
2013-06-27 10:27:00,89.0,78.0,29.81,South,180,4.0,4.0,70,0.00,,,0.00,Rainwise IP-100,2013-06-27 15:27:00,
2013-06-27 10:32:00,89.0,77.3,29.81,WSW,247,0.0,5.0,69,0.00,,,0.00,Rainwise IP-100,2013-06-27 15:32:00,
2013-06-27 10:37:00,90.0,76.3,29.81,SW,225,0.0,4.0,64,0.00,,,0.00,Rainwise IP-100,2013-06-27 15:37:00,
2013-06-27 10:42:00,90.0,77.0,29.81,South,180,2.0,6.0,66,0.00,,,0.00,Rainwise IP-100,2013-06-27 15:42:00,
2013-06-27 10:47:00,88.0,77.3,29.81,WSW,247,3.0,9.0,71,0.00,,,0.00,Rainwise IP-100,2013-06-27 15:47:00,
2013-06-27 10:52:00,88.0,77.0,29.81,SW,225,5.0,6.0,70,0.00,,,0.00,Rainwise IP-100,2013-06-27 15:52:00,
2013-06-27 10:57:00,88.0,76.5,29.81,South,180,1.0,6.0,69,0.00,,,0.00,Rainwise IP-100,2013-06-27 15:57:00,
2013-06-27 11:02:00,90.0,78.0,29.81,NNW,337,0.0,5.0,68,0.00,,,0.00,Rainwise IP-100,2013-06-27 16:02:00,
2013-06-27 11:07:00,90.0,77.3,29.80,South,180,3.0,7.0,67,0.00,,,0.00,Rainwise IP-100,2013-06-27 16:07:00,
2013-06-27 11:12:00,89.0,77.3,29.80,NW,315,6.0,7.0,69,0.00,,,0.00,Rainwise IP-100,2013-06-27 16:12:00,
2013-06-27 11:17:00,89.0,76.5,29.81,SE,135,5.0,6.0,67,0.00,,,0.00,Rainwise IP-100,2013-06-27 16:17:00,
2013-06-27 11:22:00,90.0,76.5,29.81,SE,135,3.0,6.0,65,0.00,,,0.00,Rainwise IP-100,2013-06-27 16:22:00,
2013-06-27 11:27:00,90.0,75.5,29.81,WNW,292,0.0,6.0,63,0.00,,,0.00,Rainwise IP-100,2013-06-27 16:27:00,
2013-06-27 11:32:00,90.0,75.0,29.81,WSW,247,2.0,9.0,62,0.00,,,0.00,Rainwise IP-100,2013-06-27 16:32:00,
2013-06-27 11:37:00,87.0,72.7,29.81,SW,225,6.0,14.0,63,0.00,,,0.00,Rainwise IP-100,2013-06-27 16:37:00,
2013-06-27 11:42:00,88.0,74.3,29.81,South,180,1.0,10.0,64,0.00,,,0.00,Rainwise IP-100,2013-06-27 16:42:00,
2013-06-27 11:47:00,90.0,75.0,29.81,North,360,4.0,7.0,62,0.00,,,0.00,Rainwise IP-100,2013-06-27 16:47:00,
2013-06-27 11:52:00,89.0,72.7,29.81,WNW,292,2.0,10.0,59,0.00,,,0.00,Rainwise IP-100,2013-06-27 16:52:00,
2013-06-27 11:57:00,90.0,73.0,29.80,SW,225,1.0,9.0,58,0.00,,,0.00,Rainwise IP-100,2013-06-27 16:57:00,
2013-06-27 12:02:00,90.0,75.0,29.80,SW,225,4.0,9.0,62,0.00,,,0.00,Rainwise IP-100,2013-06-27 17:02:00,
2013-06-27 12:07:00,89.0,73.3,29.81,NNW,337,7.0,10.0,60,0.00,,,0.00,Rainwise IP-100,2013-06-27 17:07:00,
2013-06-27 12:12:00,88.0,73.0,29.81,SW,225,5.0,14.0,61,0.00,,,0.00,Rainwise IP-100,2013-06-27 17:12:00,
2013-06-27 12:17:00,89.0,73.7,29.81,South,180,0.0,10.0,61,0.00,,,0.00,Rainwise IP-100,2013-06-27 17:17:00,
2013-06-27 12:22:00,89.0,74.3,29.81,WNW,292,8.0,12.0,62,0.00,,,0.00,Rainwise IP-100,2013-06-27 17:22:00,
2013-06-27 12:27:00,88.0,72.3,29.81,West,270,2.0,12.0,60,0.00,,,0.00,Rainwise IP-100,2013-06-27 17:27:00,
2013-06-27 12:32:00,89.0,72.3,29.81,NW,315,3.0,13.0,58,0.00,,,0.00,Rainwise IP-100,2013-06-27 17:32:00,
2013-06-27 12:37:00,90.0,72.7,29.80,South,180,3.0,6.0,57,0.00,,,0.00,Rainwise IP-100,2013-06-27 17:37:00,
2013-06-27 12:42:00,90.0,74.0,29.80,West,270,2.0,7.0,60,0.00,,,0.00,Rainwise IP-100,2013-06-27 17:42:00,
2013-06-27 12:47:00,91.0,74.0,29.79,West,270,6.0,6.0,58,0.00,,,0.00,Rainwise IP-100,2013-06-27 17:47:00,
2013-06-27 12:52:00,90.0,72.7,29.79,WNW,292,8.0,8.0,57,0.00,,,0.00,Rainwise IP-100,2013-06-27 17:52:00,
2013-06-27 12:57:00,92.0,75.5,29.80,SSE,157,2.0,9.0,59,0.00,,,0.00,Rainwise IP-100,2013-06-27 17:57:00,
2013-06-27 13:02:00,92.0,74.0,29.80,West,270,0.0,10.0,56,0.00,,,0.00,Rainwise IP-100,2013-06-27 18:02:00,
2013-06-27 13:07:00,91.0,74.0,29.80,SW,225,6.0,10.0,58,0.00,,,0.00,Rainwise IP-100,2013-06-27 18:07:00,
2013-06-27 13:12:00,91.0,72.7,29.80,NW,315,4.0,8.0,55,0.00,,,0.00,Rainwise IP-100,2013-06-27 18:12:00,
2013-06-27 13:17:00,91.0,73.0,29.80,SSE,157,2.0,8.0,56,0.00,,,0.00,Rainwise IP-100,2013-06-27 18:17:00,
2013-06-27 13:22:00,91.0,73.0,29.80,NW,315,5.0,11.0,56,0.00,,,0.00,Rainwise IP-100,2013-06-27 18:22:00,
2013-06-27 13:27:00,91.0,72.7,29.81,West,270,5.0,10.0,55,0.00,,,0.00,Rainwise IP-100,2013-06-27 18:27:00,
2013-06-27 13:32:00,92.0,72.3,29.81,North,360,5.0,6.0,53,0.00,,,0.00,Rainwise IP-100,2013-06-27 18:32:00,
2013-06-27 13:37:00,93.0,73.3,29.80,South,180,0.0,8.0,53,0.00,,,0.00,Rainwise IP-100,2013-06-27 18:37:00,
2013-06-27 13:42:00,91.0,71.7,29.80,SW,225,1.0,12.0,53,0.00,,,0.00,Rainwise IP-100,2013-06-27 18:42:00,
2013-06-27 13:47:00,91.0,70.5,29.81,North,360,1.0,10.0,51,0.00,,,0.00,Rainwise IP-100,2013-06-27 18:47:00,
2013-06-27 13:52:00,91.0,71.7,29.81,WNW,292,0.0,10.0,53,0.00,,,0.00,Rainwise IP-100,2013-06-27 18:52:00,
2013-06-27 13:57:00,90.0,72.7,29.81,WSW,247,5.0,10.0,57,0.00,,,0.00,Rainwise IP-100,2013-06-27 18:57:00,
2013-06-27 14:02:00,90.0,69.3,29.81,West,270,3.0,12.0,51,0.00,,,0.00,Rainwise IP-100,2013-06-27 19:02:00,
2013-06-27 14:07:00,91.0,72.0,29.81,SSW,202,0.0,12.0,54,0.00,,,0.00,Rainwise IP-100,2013-06-27 19:07:00,
2013-06-27 14:12:00,90.0,70.5,29.81,West,270,6.0,11.0,53,0.00,,,0.00,Rainwise IP-100,2013-06-27 19:12:00,
2013-06-27 14:17:00,91.0,71.7,29.81,South,180,3.0,12.0,53,0.00,,,0.00,Rainwise IP-100,2013-06-27 19:17:00,
2013-06-27 14:22:00,92.0,70.0,29.81,East,90,3.0,9.0,49,0.00,,,0.00,Rainwise IP-100,2013-06-27 19:22:00,
2013-06-27 14:27:00,93.0,72.3,29.80,East,90,1.0,6.0,51,0.00,,,0.00,Rainwise IP-100,2013-06-27 19:27:00,
2013-06-27 14:32:00,92.0,72.0,29.80,West,270,5.0,8.0,52,0.00,,,0.00,Rainwise IP-100,2013-06-27 19:32:00,
2013-06-27 14:37:00,91.0,71.0,29.81,West,270,9.0,9.0,52,0.00,,,0.00,Rainwise IP-100,2013-06-27 19:37:00,
2013-06-27 14:42:00,91.0,71.7,29.81,South,180,2.0,10.0,53,0.00,,,0.00,Rainwise IP-100,2013-06-27 19:42:00,
2013-06-27 14:47:00,92.0,71.0,29.81,NW,315,2.0,8.0,50,0.00,,,0.00,Rainwise IP-100,2013-06-27 19:47:00,
2013-06-27 14:52:00,93.0,69.7,29.81,SSW,202,3.0,5.0,47,0.00,,,0.00,Rainwise IP-100,2013-06-27 19:52:00,
2013-06-27 14:57:00,94.0,73.0,29.79,West,270,0.0,7.0,51,0.00,,,0.00,Rainwise IP-100,2013-06-27 19:57:00,
2013-06-27 15:02:00,94.0,71.3,29.79,SW,225,5.0,5.0,48,0.00,,,0.00,Rainwise IP-100,2013-06-27 20:02:00,
2013-06-27 15:07:00,93.0,72.7,29.80,NW,315,1.0,11.0,52,0.00,,,0.00,Rainwise IP-100,2013-06-27 20:07:00,
2013-06-27 15:12:00,92.0,72.0,29.80,SSE,157,2.0,10.0,52,0.00,,,0.00,Rainwise IP-100,2013-06-27 20:12:00,
2013-06-27 15:17:00,92.0,69.3,29.81,NNW,337,5.0,7.0,48,0.00,,,0.00,Rainwise IP-100,2013-06-27 20:17:00,
2013-06-27 15:22:00,92.0,70.0,29.81,SSE,157,5.0,6.0,49,0.00,,,0.00,Rainwise IP-100,2013-06-27 20:22:00,
2013-06-27 15:27:00,93.0,69.7,29.81,NE,45,7.0,7.0,47,0.00,,,0.00,Rainwise IP-100,2013-06-27 20:27:00,
2013-06-27 15:32:00,92.0,69.0,29.81,NE,45,1.0,10.0,47,0.00,,,0.00,Rainwise IP-100,2013-06-27 20:32:00,
2013-06-27 15:37:00,93.0,70.5,29.80,West,270,5.0,5.0,48,0.00,,,0.00,Rainwise IP-100,2013-06-27 20:37:00,
2013-06-27 15:42:00,95.0,70.5,29.80,NE,45,1.0,6.0,45,0.00,,,0.00,Rainwise IP-100,2013-06-27 20:42:00,
2013-06-27 15:47:00,95.0,71.0,29.79,East,90,0.0,2.0,46,0.00,,,0.00,Rainwise IP-100,2013-06-27 20:47:00,
2013-06-27 15:52:00,96.0,71.3,29.79,West,270,3.0,6.0,45,0.00,,,0.00,Rainwise IP-100,2013-06-27 20:52:00,
2013-06-27 15:57:00,95.0,70.5,29.79,North,360,4.0,6.0,45,0.00,,,0.00,Rainwise IP-100,2013-06-27 20:57:00,
2013-06-27 16:02:00,94.0,70.0,29.79,West,270,1.0,7.0,46,0.00,,,0.00,Rainwise IP-100,2013-06-27 21:02:00,
2013-06-27 16:07:00,94.0,73.0,29.80,West,270,3.0,5.0,51,0.00,,,0.00,Rainwise IP-100,2013-06-27 21:07:00,
2013-06-27 16:12:00,93.0,70.5,29.80,South,180,5.0,7.0,48,0.00,,,0.00,Rainwise IP-100,2013-06-27 21:12:00,
2013-06-27 16:17:00,92.0,71.0,29.81,SE,135,6.0,8.0,50,0.00,,,0.00,Rainwise IP-100,2013-06-27 21:17:00,
2013-06-27 16:22:00,92.0,70.0,29.81,WNW,292,3.0,7.0,49,0.00,,,0.00,Rainwise IP-100,2013-06-27 21:22:00,
2013-06-27 16:27:00,93.0,71.0,29.81,SW,225,0.0,6.0,49,0.00,,,0.00,Rainwise IP-100,2013-06-27 21:27:00,
2013-06-27 16:32:00,95.0,72.7,29.81,SW,225,0.0,2.0,49,0.00,,,0.00,Rainwise IP-100,2013-06-27 21:32:00,
2013-06-27 16:37:00,94.0,71.0,29.79,NW,315,4.0,6.0,47,0.00,,,0.00,Rainwise IP-100,2013-06-27 21:37:00,
2013-06-27 16:42:00,94.0,69.0,29.79,SW,225,0.0,8.0,44,0.00,,,0.00,Rainwise IP-100,2013-06-27 21:42:00,
2013-06-27 16:47:00,95.0,70.5,29.80,West,270,2.0,7.0,45,0.00,,,0.00,Rainwise IP-100,2013-06-27 21:47:00,
2013-06-27 16:52:00,94.0,68.0,29.80,West,270,3.0,7.0,43,0.00,,,0.00,Rainwise IP-100,2013-06-27 21:52:00,
2013-06-27 16:57:00,93.0,68.5,29.80,NE,45,3.0,7.0,45,0.00,,,0.00,Rainwise IP-100,2013-06-27 21:57:00,
2013-06-27 17:02:00,92.0,67.5,29.80,SSE,157,2.0,11.0,45,0.00,,,0.00,Rainwise IP-100,2013-06-27 22:02:00,
2013-06-27 17:07:00,92.0,70.0,29.81,South,180,2.0,6.0,49,0.00,,,0.00,Rainwise IP-100,2013-06-27 22:07:00,
2013-06-27 17:12:00,91.0,68.0,29.81,NW,315,3.0,10.0,47,0.00,,,0.00,Rainwise IP-100,2013-06-27 22:12:00,
2013-06-27 17:17:00,92.0,70.0,29.80,WSW,247,2.0,9.0,49,0.00,,,0.00,Rainwise IP-100,2013-06-27 22:17:00,
2013-06-27 17:22:00,92.0,70.0,29.80,WSW,247,1.0,3.0,49,0.00,,,0.00,Rainwise IP-100,2013-06-27 22:22:00,
2013-06-27 17:27:00,91.0,66.3,29.79,NNE,22,1.0,7.0,44,0.00,,,0.00,Rainwise IP-100,2013-06-27 22:27:00,
2013-06-27 17:32:00,92.0,69.0,29.79,West,270,0.0,7.0,47,0.00,,,0.00,Rainwise IP-100,2013-06-27 22:32:00,
2013-06-27 17:37:00,93.0,68.5,29.78,WNW,292,0.0,4.0,45,0.00,,,0.00,Rainwise IP-100,2013-06-27 22:37:00,
2013-06-27 17:42:00,92.0,68.0,29.78,ENE,67,1.0,6.0,46,0.00,,,0.00,Rainwise IP-100,2013-06-27 22:42:00,
2013-06-27 17:47:00,91.0,67.5,29.79,NNW,337,4.0,7.0,46,0.00,,,0.00,Rainwise IP-100,2013-06-27 22:47:00,
2013-06-27 17:52:00,92.0,70.0,29.79,WNW,292,0.0,5.0,49,0.00,,,0.00,Rainwise IP-100,2013-06-27 22:52:00,
2013-06-27 17:57:00,92.0,68.0,29.78,WSW,247,2.0,6.0,46,0.00,,,0.00,Rainwise IP-100,2013-06-27 22:57:00,
2013-06-27 18:02:00,92.0,68.0,29.78,WSW,247,2.0,6.0,46,0.00,,,0.00,Rainwise IP-100,2013-06-27 23:02:00,
2013-06-27 18:07:00,92.0,69.3,29.78,West,270,0.0,6.0,48,0.00,,,0.00,Rainwise IP-100,2013-06-27 23:07:00,
2013-06-27 18:12:00,92.0,71.0,29.78,West,270,0.0,4.0,50,0.00,,,0.00,Rainwise IP-100,2013-06-27 23:12:00,
2013-06-27 18:17:00,92.0,71.3,29.77,WSW,247,4.0,5.0,51,0.00,,,0.00,Rainwise IP-100,2013-06-27 23:17:00,
2013-06-27 18:22:00,92.0,71.3,29.77,NW,315,3.0,5.0,51,0.00,,,0.00,Rainwise IP-100,2013-06-27 23:22:00,
2013-06-27 18:27:00,91.0,71.0,29.78,West,270,0.0,5.0,52,0.00,,,0.00,Rainwise IP-100,2013-06-27 23:27:00,
2013-06-27 18:33:00,91.0,70.0,29.78,WSW,247,1.0,3.0,50,0.00,,,0.00,Rainwise IP-100,2013-06-27 23:33:00,
2013-06-27 18:38:00,90.0,70.5,29.78,WNW,292,0.0,3.0,53,0.00,,,0.00,Rainwise IP-100,2013-06-27 23:38:00,
2013-06-27 18:43:00,90.0,69.3,29.78,WNW,292,0.0,1.0,51,0.00,,,0.00,Rainwise IP-100,2013-06-27 23:43:00,
2013-06-27 21:48:00,78.0,74.0,29.78,WSW,247,1.0,0.0,88,0.00,,,0.00,Rainwise IP-100,2013-06-28 02:48:00,
2013-06-27 22:31:00,77.0,74.3,29.77,WSW,247,0.0,2.0,91,0.00,,,0.00,Rainwise IP-100,2013-06-28 03:31:00,
2013-06-27 22:36:00,77.0,74.3,29.77,WSW,247,0.0,2.0,91,0.00,,,0.00,Rainwise IP-100,2013-06-28 03:36:00,
2013-06-27 22:41:00,77.0,74.0,29.77,WSW,247,0.0,1.0,90,0.00,,,0.00,Rainwise IP-100,2013-06-28 03:41:00,
2013-06-27 22:46:00,77.0,73.7,29.77,WSW,247,0.0,0.0,89,0.00,,,0.00,Rainwise IP-100,2013-06-28 03:46:00,
2013-06-27 22:51:00,77.0,73.7,29.77,WSW,247,0.0,0.0,89,0.00,,,0.00,Rainwise IP-100,2013-06-28 03:51:00,
2013-06-27 22:56:00,77.0,73.7,29.77,WSW,247,0.0,0.0,89,0.00,,,0.00,Rainwise IP-100,2013-06-28 03:56:00,
2013-06-27 23:01:00,77.0,74.0,29.77,WSW,247,0.0,0.0,90,0.00,,,0.00,Rainwise IP-100,2013-06-28 04:01:00,
2013-06-27 23:02:00,77.0,74.0,29.77,WSW,247,0.0,0.0,90,0.00,,,0.00,Rainwise IP-100,2013-06-28 04:02:00,
2013-06-27 23:07:00,77.0,74.3,29.77,WSW,247,0.0,0.0,91,0.00,,,0.00,Rainwise IP-100,2013-06-28 04:07:00,
2013-06-27 23:12:00,77.0,74.3,29.77,WSW,247,0.0,0.0,91,0.00,,,0.00,Rainwise IP-100,2013-06-28 04:12:00,
2013-06-27 23:35:00,76.0,72.7,29.78,WSW,247,0.0,0.0,90,0.00,,,0.00,Rainwise IP-100,2013-06-28 04:35:00,
2013-06-27 23:40:00,76.0,72.3,29.78,WSW,247,0.0,0.0,89,0.00,,,0.00,Rainwise IP-100,2013-06-28 04:40:00,